User: anonymous   Login
Location: Unspecified
(0.0000°N, 0.0000°E)
Time: 09:08:20
(UTC+00:00)
Language:

STRELA 3 - Orbit

View from above orbital plane
View from above orbital plane
View from above satellite
View from above satellite

Ground track
Ground track

The orbit data is extracted from the following two-line orbital elements,

1 37153U 10043B   17118.77011717 +.00000029 +00000-0 +14467-3 0  9992
2 37153 082.4617 356.6078 0007822 117.3184 242.8693 12.40724504300677
Epoch (UTC): 28 April 2017 18:28:58
Eccentricity: 0.0007822
inclination: 82.4617°
perigee height: 1497 km
apogee height: 1509 km
right ascension of ascending node: 356.6078°
argument of perigee: 117.3184°
revolutions per day: 12.40724504
mean anomaly at epoch: 242.8693°
orbit number at epoch: 30067

The dashed part of the orbit path shows where the satellite is in the earth's shadow,  

DLR